Location: Zagreb
(45.8000°N, 16.0000°E)
Time: 14:34:12
(UTC+02:00)

Tiros 1 despin weight - Pass Details

Date: 08 August 2022
Orbit: 590 x 639 km, 48.2° (Epoch: 23 September)

Event Time Altitude Azimuth Distance (km) Brightness Sun altitude
Rises 15:41:55 0° 253° (WSW) 2,833 ? 45.3°
Reaches altitude 10° 15:44:13 10° 254° (WSW) 1,926 ? 45.0°
Maximum altitude 15:48:38 85° 344° (NNW) 599 ? 44.3°
Drops below altitude 10° 15:53:02 10° 73° (ENE) 1,919 ? 43.6°
Sets 15:55:19 0° 74° (ENE) 2,821 ? 43.2°
